Year,Month,Day,Hour,Minute,Value (Times are PST for temperature in C)
2010,06,28,08,16,13.40
2010,06,28,08,17,13.40
2010,06,28,08,18,13.40
2010,06,28,08,19,13.50
2010,06,28,08,20,13.50
2010,06,28,08,21,13.50
2010,06,28,08,22,13.50
2010,06,28,08,23,13.50
2010,06,28,08,24,13.50
2010,06,28,08,25,13.50
2010,06,28,08,26,13.60
2010,06,28,08,27,13.60
2010,06,28,08,28,13.60
2010,06,28,08,29,13.60
2010,06,28,08,30,13.60
2010,06,28,08,31,13.60
2010,06,28,08,32,13.60
2010,06,28,08,33,13.60
2010,06,28,08,34,13.60
2010,06,28,08,35,13.60
2010,06,28,08,36,13.70
2010,06,28,08,37,13.70
2010,06,28,08,38,13.70
2010,06,28,08,39,13.70
2010,06,28,08,40,13.70
2010,06,28,08,41,13.70
2010,06,28,08,42,13.70
2010,06,28,08,43,13.70
2010,06,28,08,44,13.70
2010,06,28,08,45,13.70
2010,06,28,08,46,13.70
2010,06,28,08,47,13.80
2010,06,28,08,48,13.80
2010,06,28,08,49,13.80
2010,06,28,08,50,13.80
2010,06,28,08,51,13.80
2010,06,28,08,52,13.80
2010,06,28,08,53,13.90
2010,06,28,08,54,13.90
2010,06,28,08,55,13.90
2010,06,28,08,56,14.00
2010,06,28,08,57,14.10
2010,06,28,08,58,14.10
2010,06,28,08,59,14.20
2010,06,28,09,00,14.20
2010,06,28,09,01,14.30
2010,06,28,09,02,14.30
2010,06,28,09,03,14.30
2010,06,28,09,04,14.40
2010,06,28,09,05,14.50
2010,06,28,09,06,14.50
2010,06,28,09,07,14.70
2010,06,28,09,08,14.80
2010,06,28,09,09,14.80
2010,06,28,09,10,14.90
2010,06,28,09,11,15.00
2010,06,28,09,12,15.00
2010,06,28,09,13,15.00
2010,06,28,09,14,15.00
2010,06,28,09,15,15.00
2010,06,28,09,16,15.00
2010,06,28,09,17,15.00
2010,06,28,09,18,15.00
2010,06,28,09,19,15.00
2010,06,28,09,20,15.00
2010,06,28,09,21,15.00
2010,06,28,09,22,15.20
2010,06,28,09,23,15.20
2010,06,28,09,24,15.30
2010,06,28,09,25,15.30
2010,06,28,09,26,15.40
2010,06,28,09,27,15.40
2010,06,28,09,28,15.40
2010,06,28,09,29,15.40
2010,06,28,09,30,15.50
2010,06,28,09,31,15.50
2010,06,28,09,32,15.50
2010,06,28,09,33,15.50
2010,06,28,09,34,15.60
2010,06,28,09,35,15.60
2010,06,28,09,36,15.60
2010,06,28,09,37,15.60
2010,06,28,09,38,15.70
2010,06,28,09,39,15.70
2010,06,28,09,40,15.70
2010,06,28,09,41,15.80
2010,06,28,09,42,15.80
2010,06,28,09,43,15.70
2010,06,28,09,44,15.60
2010,06,28,09,45,15.50
2010,06,28,09,46,15.40
2010,06,28,09,47,15.30
2010,06,28,09,48,15.20
2010,06,28,09,49,15.20
2010,06,28,09,50,15.00
2010,06,28,09,51,15.00
2010,06,28,09,52,15.00
2010,06,28,09,53,15.00
2010,06,28,09,54,15.00
2010,06,28,09,55,15.00
2010,06,28,09,56,15.00
2010,06,28,09,57,15.00
2010,06,28,09,58,15.00
2010,06,28,09,59,15.00
2010,06,28,10,00,15.00
2010,06,28,10,01,15.00
2010,06,28,10,02,15.00
2010,06,28,10,03,15.00
2010,06,28,10,04,15.00
2010,06,28,10,05,15.00
2010,06,28,10,06,15.00
2010,06,28,10,07,15.00
2010,06,28,10,08,15.00
2010,06,28,10,09,15.00
2010,06,28,10,10,15.00
2010,06,28,10,11,15.00
2010,06,28,10,12,15.00
2010,06,28,10,13,15.00
2010,06,28,10,14,15.00
2010,06,28,10,15,15.00
2010,06,28,10,16,15.00
2010,06,28,10,17,15.00
2010,06,28,10,18,15.00
2010,06,28,10,19,15.00
2010,06,28,10,20,15.00
2010,06,28,10,21,15.00
2010,06,28,10,22,15.00
2010,06,28,10,23,15.00
2010,06,28,10,24,15.00
2010,06,28,10,25,15.00
2010,06,28,10,26,15.00
2010,06,28,10,27,15.00
2010,06,28,10,28,15.00
2010,06,28,10,29,15.00
2010,06,28,10,30,15.00
2010,06,28,10,31,15.00
2010,06,28,10,32,15.00
2010,06,28,10,33,15.00
2010,06,28,10,34,15.00
2010,06,28,10,35,15.00
2010,06,28,10,36,15.00
2010,06,28,10,37,15.00
2010,06,28,10,38,15.00
2010,06,28,10,39,15.00
2010,06,28,10,40,15.00
2010,06,28,10,41,15.00
2010,06,28,10,42,15.00
2010,06,28,10,43,15.00
2010,06,28,10,44,15.00
2010,06,28,10,45,15.00
2010,06,28,10,46,15.00
2010,06,28,10,47,15.10
2010,06,28,10,48,15.10
2010,06,28,10,49,15.20
2010,06,28,10,50,15.20
2010,06,28,10,51,15.30
2010,06,28,10,52,15.40
2010,06,28,10,53,15.60
2010,06,28,10,54,15.70
2010,06,28,10,55,15.70
2010,06,28,10,56,15.80
2010,06,28,10,57,15.80
2010,06,28,10,58,15.80
2010,06,28,10,59,15.80
2010,06,28,11,00,15.80
2010,06,28,11,01,15.90
2010,06,28,11,02,15.90
2010,06,28,11,03,16.00
2010,06,28,11,04,16.00
2010,06,28,11,05,16.00
2010,06,28,11,06,16.00
2010,06,28,11,07,16.00
2010,06,28,11,08,16.00
2010,06,28,11,09,16.00
2010,06,28,11,10,15.90
2010,06,28,11,11,15.90
2010,06,28,11,12,15.90
2010,06,28,11,13,15.90
2010,06,28,11,14,15.90
2010,06,28,11,15,15.90
2010,06,28,11,16,15.90
2010,06,28,11,17,16.00
2010,06,28,11,18,16.00
2010,06,28,11,19,16.00
2010,06,28,11,20,16.00
2010,06,28,11,21,16.00
2010,06,28,11,22,16.10
2010,06,28,11,23,16.10
2010,06,28,11,24,16.10
2010,06,28,11,25,16.10
2010,06,28,11,26,16.10
2010,06,28,11,27,16.10
2010,06,28,11,28,16.10
2010,06,28,11,29,16.10
2010,06,28,11,30,16.10
2010,06,28,11,31,16.10
2010,06,28,11,32,16.00
2010,06,28,11,33,15.90
2010,06,28,11,34,15.90
2010,06,28,11,35,15.90
2010,06,28,11,36,16.00
2010,06,28,11,37,16.10
2010,06,28,11,38,16.30
2010,06,28,11,39,16.40
2010,06,28,11,40,16.40
2010,06,28,11,41,16.40
2010,06,28,11,42,16.40
2010,06,28,11,43,16.40
2010,06,28,11,44,16.50
2010,06,28,11,45,16.50
2010,06,28,11,46,16.50
2010,06,28,11,47,16.50
2010,06,28,11,48,16.50
2010,06,28,11,49,16.40
2010,06,28,11,50,16.40
2010,06,28,11,51,16.40
2010,06,28,11,52,16.50
2010,06,28,11,53,16.50
2010,06,28,11,54,16.60
2010,06,28,11,55,16.70
2010,06,28,11,56,16.90
2010,06,28,11,57,16.90
2010,06,28,11,58,16.80
2010,06,28,11,59,16.70
2010,06,28,12,00,16.70
2010,06,28,12,01,16.80
2010,06,28,12,02,16.80
2010,06,28,12,03,16.80
2010,06,28,12,04,16.80
2010,06,28,12,05,16.90
2010,06,28,12,06,16.90
2010,06,28,12,07,16.90
2010,06,28,12,08,16.90
2010,06,28,12,09,17.00
2010,06,28,12,10,16.90
2010,06,28,12,11,16.90
2010,06,28,12,12,16.80
2010,06,28,12,13,16.80
2010,06,28,12,14,16.60
2010,06,28,12,15,16.60
2010,06,28,12,16,16.60
2010,06,28,12,17,16.50
2010,06,28,12,18,16.40
2010,06,28,12,19,16.30
2010,06,28,12,20,16.30
2010,06,28,12,21,16.30
2010,06,28,12,22,16.20
2010,06,28,12,23,16.10
2010,06,28,12,24,16.00
2010,06,28,12,25,16.10
2010,06,28,12,26,16.10
2010,06,28,12,27,16.00
2010,06,28,12,28,15.90
2010,06,28,12,29,15.90
2010,06,28,12,30,15.90
2010,06,28,12,31,16.00
2010,06,28,12,32,16.20
2010,06,28,12,33,16.20
2010,06,28,12,34,16.20
2010,06,28,12,35,16.30
2010,06,28,12,36,16.40
2010,06,28,12,37,16.50
2010,06,28,12,38,16.60
2010,06,28,12,39,16.70
2010,06,28,12,40,16.70
2010,06,28,12,41,16.60
2010,06,28,12,42,16.60
2010,06,28,12,43,16.70
2010,06,28,12,44,16.70
2010,06,28,12,45,16.80
2010,06,28,12,46,16.80
2010,06,28,12,47,16.80
2010,06,28,12,48,16.80
2010,06,28,12,49,16.70
2010,06,28,12,50,16.70
2010,06,28,12,51,16.60
2010,06,28,12,52,16.50
2010,06,28,12,53,16.50
2010,06,28,12,54,16.40
2010,06,28,12,55,16.50
2010,06,28,12,56,16.40
2010,06,28,12,57,16.40
2010,06,28,12,58,16.50
2010,06,28,12,59,16.60
2010,06,28,13,00,16.70
2010,06,28,13,01,16.60
2010,06,28,13,02,16.60
2010,06,28,13,03,16.60
2010,06,28,13,04,16.60
2010,06,28,13,05,16.60
2010,06,28,13,06,16.60
2010,06,28,13,07,16.60
2010,06,28,13,08,16.60
2010,06,28,13,09,16.60
2010,06,28,13,10,16.60
2010,06,28,13,11,16.50
2010,06,28,13,12,16.40
2010,06,28,13,13,16.20
2010,06,28,13,14,16.20
2010,06,28,13,15,16.10
2010,06,28,13,16,16.00
2010,06,28,13,17,16.10
2010,06,28,13,18,16.10
2010,06,28,13,19,16.10
2010,06,28,13,20,16.10
2010,06,28,13,21,16.00
2010,06,28,13,22,16.00
2010,06,28,13,23,16.00
2010,06,28,13,24,16.20
2010,06,28,13,25,16.30
2010,06,28,13,26,16.30
2010,06,28,13,27,16.30
2010,06,28,13,28,16.20
2010,06,28,13,29,16.10
2010,06,28,13,30,16.10
2010,06,28,13,31,15.90
2010,06,28,13,32,15.90
2010,06,28,13,33,16.00
2010,06,28,13,34,16.00
2010,06,28,13,35,15.90
2010,06,28,13,36,15.80
2010,06,28,13,37,15.70
2010,06,28,13,38,15.90
2010,06,28,13,39,16.00
2010,06,28,13,40,16.00
2010,06,28,13,41,16.10
2010,06,28,13,42,16.10
2010,06,28,13,43,16.20
2010,06,28,13,44,16.40
2010,06,28,13,45,16.50
2010,06,28,13,46,16.50
2010,06,28,13,47,16.60
2010,06,28,13,48,16.60
2010,06,28,13,49,16.40
2010,06,28,13,50,16.40
2010,06,28,13,51,16.50
2010,06,28,13,52,16.70
2010,06,28,13,53,16.70
2010,06,28,13,54,16.80
2010,06,28,13,55,17.00
2010,06,28,13,56,17.10
2010,06,28,13,57,17.10
2010,06,28,13,58,17.00
2010,06,28,13,59,17.10
2010,06,28,14,00,17.00
2010,06,28,14,01,17.10
2010,06,28,14,02,17.10
2010,06,28,14,03,17.10
2010,06,28,14,04,17.00
2010,06,28,14,05,16.90
2010,06,28,14,06,16.80
2010,06,28,14,07,16.90
2010,06,28,14,08,16.90
2010,06,28,14,09,16.90
2010,06,28,14,10,16.80
2010,06,28,14,11,16.80
2010,06,28,14,12,16.70
2010,06,28,14,13,16.70
2010,06,28,14,14,16.90
2010,06,28,14,15,17.00
2010,06,28,14,16,16.80
2010,06,28,14,17,16.80
2010,06,28,14,18,16.70
2010,06,28,14,19,16.70
2010,06,28,14,20,16.80
2010,06,28,14,21,16.80
2010,06,28,14,22,16.90
2010,06,28,14,23,16.90
2010,06,28,14,24,16.80
2010,06,28,14,25,16.80
2010,06,28,14,26,16.80
2010,06,28,14,27,16.70
2010,06,28,14,28,16.60
2010,06,28,14,29,16.50
2010,06,28,14,30,16.50
2010,06,28,14,31,16.50
2010,06,28,14,32,16.30
2010,06,28,14,33,16.30
2010,06,28,14,34,16.20
2010,06,28,14,35,16.00
2010,06,28,14,36,15.90
2010,06,28,14,37,15.80
2010,06,28,14,38,15.70
2010,06,28,14,39,15.70
2010,06,28,14,40,15.80
2010,06,28,14,41,15.80
2010,06,28,14,42,15.80
2010,06,28,14,43,15.80
2010,06,28,14,44,15.80
2010,06,28,14,45,15.80
2010,06,28,14,46,15.80
2010,06,28,14,47,15.80
2010,06,28,14,48,15.80
2010,06,28,14,49,15.80
2010,06,28,14,50,15.80
2010,06,28,14,51,15.80
2010,06,28,14,52,15.80
2010,06,28,14,53,15.90
2010,06,28,14,54,15.90
2010,06,28,14,55,15.90
2010,06,28,14,56,15.90
2010,06,28,14,57,15.90
2010,06,28,14,58,15.80
2010,06,28,14,59,15.80
2010,06,28,15,00,15.80
2010,06,28,15,01,15.80
2010,06,28,15,02,15.70
2010,06,28,15,03,15.70
2010,06,28,15,04,15.60
2010,06,28,15,05,15.60
2010,06,28,15,06,15.70
2010,06,28,15,07,15.70
2010,06,28,15,08,15.70
2010,06,28,15,09,15.80
2010,06,28,15,10,15.80
2010,06,28,15,11,15.80
2010,06,28,15,12,15.90
2010,06,28,15,13,16.00
2010,06,28,15,14,16.00
2010,06,28,15,15,16.00
2010,06,28,15,16,15.90
2010,06,28,15,17,15.90
2010,06,28,15,18,15.90
2010,06,28,15,19,15.90
2010,06,28,15,20,15.90
2010,06,28,15,21,15.90
2010,06,28,15,22,15.90
2010,06,28,15,23,15.90
2010,06,28,15,24,15.90
2010,06,28,15,25,16.00
2010,06,28,15,26,16.10
2010,06,28,15,27,16.20
2010,06,28,15,28,16.30
2010,06,28,15,29,16.40
2010,06,28,15,30,16.40
2010,06,28,15,31,16.50
2010,06,28,15,32,16.70
2010,06,28,15,33,16.80
2010,06,28,15,34,16.90
2010,06,28,15,35,16.90
2010,06,28,15,36,17.00
2010,06,28,15,37,17.10
2010,06,28,15,38,17.20
2010,06,28,15,39,17.20
2010,06,28,15,40,17.20
2010,06,28,15,41,17.20
2010,06,28,15,42,17.30
2010,06,28,15,43,17.30
2010,06,28,15,44,17.30
2010,06,28,15,45,17.30
2010,06,28,15,46,17.20
2010,06,28,15,47,17.10
2010,06,28,15,48,17.10
2010,06,28,15,49,17.10
2010,06,28,15,50,17.20
2010,06,28,15,51,17.30
2010,06,28,15,52,17.30
2010,06,28,15,53,17.40
2010,06,28,15,54,17.50
2010,06,28,15,55,17.50
2010,06,28,15,56,17.50
2010,06,28,15,57,17.60
2010,06,28,15,58,17.60
2010,06,28,15,59,17.70
2010,06,28,16,00,17.70
2010,06,28,16,01,17.70
2010,06,28,16,02,17.70
2010,06,28,16,03,17.70
2010,06,28,16,04,17.60
2010,06,28,16,05,17.50
2010,06,28,16,06,17.50
2010,06,28,16,07,17.50
2010,06,28,16,08,17.50
2010,06,28,16,09,17.60
2010,06,28,16,10,17.70
2010,06,28,16,11,17.80
2010,06,28,16,12,17.80
2010,06,28,16,13,17.80
2010,06,28,16,14,17.80
2010,06,28,16,15,17.80
2010,06,28,16,16,17.80
2010,06,28,16,17,17.80
2010,06,28,16,18,17.80
2010,06,28,16,19,17.80
2010,06,28,16,20,17.80
2010,06,28,16,21,17.80
2010,06,28,16,22,17.80
2010,06,28,16,23,17.80
2010,06,28,16,24,17.90
2010,06,28,16,25,18.00
2010,06,28,16,26,18.00
2010,06,28,16,27,18.00
2010,06,28,16,28,18.00
2010,06,28,16,29,17.90
2010,06,28,16,30,17.90
2010,06,28,16,31,17.90
2010,06,28,16,32,17.90
2010,06,28,16,33,17.90
2010,06,28,16,34,18.00
2010,06,28,16,35,18.10
2010,06,28,16,36,18.20
2010,06,28,16,37,18.30
2010,06,28,16,38,18.50
2010,06,28,16,39,18.60
2010,06,28,16,40,18.70
2010,06,28,16,41,18.80
2010,06,28,16,42,19.00
2010,06,28,16,43,19.10
2010,06,28,16,44,19.20
2010,06,28,16,45,19.20
2010,06,28,16,46,19.20
2010,06,28,16,47,19.20
2010,06,28,16,48,19.20
2010,06,28,16,49,19.30
2010,06,28,16,50,19.40
2010,06,28,16,51,19.50
2010,06,28,16,52,19.60
2010,06,28,16,53,19.70
2010,06,28,16,54,19.80
2010,06,28,16,55,19.90
2010,06,28,16,56,20.00
2010,06,28,16,57,20.10
2010,06,28,16,58,20.10
2010,06,28,16,59,20.10
2010,06,28,17,00,20.20
2010,06,28,17,01,20.20
2010,06,28,17,02,20.20
2010,06,28,17,03,20.20
2010,06,28,17,04,20.20
2010,06,28,17,05,20.20
2010,06,28,17,06,20.30
2010,06,28,17,07,20.30
2010,06,28,17,08,20.40
2010,06,28,17,09,20.40
2010,06,28,17,10,20.40
2010,06,28,17,11,20.40
2010,06,28,17,12,20.40
2010,06,28,17,13,20.40
2010,06,28,17,14,20.50
2010,06,28,17,15,20.60
2010,06,28,17,16,20.50
2010,06,28,17,17,20.50
2010,06,28,17,18,20.50
2010,06,28,17,19,20.40
2010,06,28,17,20,20.40
2010,06,28,17,21,20.40
2010,06,28,17,22,20.40
2010,06,28,17,23,20.40
2010,06,28,17,24,20.30
2010,06,28,17,25,20.10
2010,06,28,17,26,20.10
2010,06,28,17,27,20.00
2010,06,28,17,28,19.90
2010,06,28,17,29,19.90
2010,06,28,17,30,19.90
2010,06,28,17,31,19.90
2010,06,28,17,32,19.90
2010,06,28,17,33,19.90
2010,06,28,17,34,19.80
2010,06,28,17,35,19.60
2010,06,28,17,36,19.50
2010,06,28,17,37,19.50
2010,06,28,17,38,19.50
2010,06,28,17,39,19.60
2010,06,28,17,40,19.60
2010,06,28,17,41,19.60
2010,06,28,17,42,19.60
2010,06,28,17,43,19.60
2010,06,28,17,44,19.60
2010,06,28,17,45,19.60
2010,06,28,17,46,19.50
2010,06,28,17,47,19.40
2010,06,28,17,48,19.30
2010,06,28,17,49,19.30
2010,06,28,17,50,19.20
2010,06,28,17,51,19.20
2010,06,28,17,52,19.10
2010,06,28,17,53,19.00
2010,06,28,17,54,18.90
2010,06,28,17,55,18.90
2010,06,28,17,56,18.90
2010,06,28,17,57,18.80
2010,06,28,17,58,18.80
2010,06,28,17,59,18.70
2010,06,28,18,00,18.70
2010,06,28,18,01,18.60
2010,06,28,18,02,18.60
2010,06,28,18,03,18.60
2010,06,28,18,04,18.50
2010,06,28,18,05,18.50
2010,06,28,18,06,18.50
2010,06,28,18,07,18.50
2010,06,28,18,08,18.40
2010,06,28,18,09,18.40
2010,06,28,18,10,18.40
2010,06,28,18,11,18.40
2010,06,28,18,12,18.50
2010,06,28,18,13,18.50
2010,06,28,18,14,18.50
2010,06,28,18,15,18.50
2010,06,28,18,16,18.50
2010,06,28,18,17,18.40
2010,06,28,18,18,18.40
2010,06,28,18,19,18.40
2010,06,28,18,20,18.40
2010,06,28,18,21,18.40
2010,06,28,18,22,18.40
2010,06,28,18,23,18.40
2010,06,28,18,24,18.40
2010,06,28,18,25,18.30
2010,06,28,18,26,18.30
2010,06,28,18,27,18.40
2010,06,28,18,28,18.40
2010,06,28,18,29,18.40
2010,06,28,18,30,18.40
2010,06,28,18,31,18.50
2010,06,28,18,32,18.60
2010,06,28,18,33,18.60
2010,06,28,18,34,18.70
2010,06,28,18,35,18.70
2010,06,28,18,36,18.80
2010,06,28,18,37,18.90
2010,06,28,18,38,18.90
2010,06,28,18,39,18.90
2010,06,28,18,40,19.00
2010,06,28,18,41,18.90
2010,06,28,18,42,18.90
2010,06,28,18,43,18.80
2010,06,28,18,44,18.80
2010,06,28,18,45,18.70
2010,06,28,18,46,18.70
2010,06,28,18,47,18.60
2010,06,28,18,48,18.60
2010,06,28,18,49,18.50
2010,06,28,18,50,18.50
2010,06,28,18,51,18.50
2010,06,28,18,52,18.50
2010,06,28,18,53,18.50
2010,06,28,18,54,18.60
2010,06,28,18,55,18.50
2010,06,28,18,56,18.40
2010,06,28,18,57,18.30
2010,06,28,18,58,18.30
2010,06,28,18,59,18.20
2010,06,28,19,00,18.10
2010,06,28,19,01,18.00
2010,06,28,19,02,18.00
2010,06,28,19,03,17.90
2010,06,28,19,04,17.90
2010,06,28,19,05,17.80
2010,06,28,19,06,17.80
2010,06,28,19,07,17.80
2010,06,28,19,08,17.80
2010,06,28,19,09,17.80
2010,06,28,19,10,17.80
2010,06,28,19,11,17.80
2010,06,28,19,12,17.80
2010,06,28,19,13,17.90
2010,06,28,19,14,18.00
2010,06,28,19,15,18.00
2010,06,28,19,16,18.10
2010,06,28,19,17,18.10
2010,06,28,19,18,18.20
2010,06,28,19,19,18.20
2010,06,28,19,20,18.30
2010,06,28,19,21,18.30
2010,06,28,19,22,18.30
2010,06,28,19,23,18.30
2010,06,28,19,24,18.30
2010,06,28,19,25,18.30
2010,06,28,19,26,18.30
2010,06,28,19,27,18.30
2010,06,28,19,28,18.30
2010,06,28,19,29,18.20
2010,06,28,19,30,18.20
2010,06,28,19,31,18.20
2010,06,28,19,32,18.20
2010,06,28,19,33,18.20
2010,06,28,19,34,18.20
2010,06,28,19,35,18.20
2010,06,28,19,36,18.20
2010,06,28,19,37,18.20
2010,06,28,19,38,18.20
